www.pogodaiklimat.ru
ПОГОДА в Междуреченске

Архив погоды в Междуреченске (Кемеровская область, Россия)

Время
(UTC), дата
00 13.08
03 13.08
06 13.08
09 13.08
12 13.08
15 13.08
18 13.08
21 13.08
00 14.08
03 14.08
06 14.08
09 14.08
12 14.08
15 14.08
18 14.08
21 14.08
00 15.08
03 15.08
06 15.08
09 15.08
12 15.08
15 15.08
18 15.08
21 15.08
00 16.08
03 16.08
06 16.08
09 16.08
12 16.08
15 16.08
18 16.08
21 16.08
00 17.08
03 17.08
06 17.08
09 17.08
12 17.08
15 17.08
18 17.08
21 17.08
00 18.08
03 18.08
06 18.08
09 18.08
12 18.08
15 18.08
18 18.08
21 18.08
00 19.08
03 19.08
06 19.08
09 19.08
12 19.08
15 19.08
18 19.08
Ветер
(напр.,м/с)
Видим. Явления Облачность Т
(С)
Тd
(С)
f
(%)
Тe
(С)
Тes
(С)
Комфортность P
(гПа)
Po
(гПа)
Тmin
(С)
Tmax
(С)
R
(мм)
R24
(мм)
S
(см)
штиль 0 500 м туман ?/? +13.4 +13.4 100 +13 +13 по сезону 1010.1 980.0 +11.6
штиль 0 20 км в посл. час ливневой дождь {туман} 10/10 600 м
[Cb cap]
+17.5 +16.4 93 +17 +17 тепло 1008.3 978.7
ЮЗ 2 20 км {ливн. дождь, туман} 9/6 600 м
[Cb cap Ci fib]
+21.2 +16.2 73 +25 +26 комфорт 1007.9 978.7
З 3 20 км {ливн. дождь} 8/5 600 м
[Cb cap Ci fib]
+23.5 +16.8 66 +27 +29 душно 1006.3 977.3
В 1
{10}
10 км 10 баллов +17.2 +16.7 97 +18 +18 прохладно 1008.3 978.7 +24.1 7
СВ 1 20 км в посл. час ливневой дождь 10/10 600 м
[Cb cap]
+15.6 +15.4 99 +16 +16 по сезону 1008.5 978.7
ЮЗ 1 20 км {ливн. дождь} 10/9 600 м
[Cb cap Ac trans]
+16.0 +15.4 96 +17 +17 тепло 1009.8 980.0
штиль 0 20 км 10/10 600 м
[Cb cap]
+15.0 +14.7 98 +15 +15 тепло 1008.6 978.7
ЮЗ 1 20 км в посл. час ливневой дождь 10/10 600 м
[Cb cap]
+15.5 +14.9 96 +16 +16 тепло 1008.5 978.7 +14.9 3
ЮЗ 4 20 км 4/1 1000 м
[Sc diur, vesp Ac trans Ci fib]
+19.4 +14.4 73 +21 +24 комфорт 1009.5 980.0
ЮЗ 5
{10}
20 км 10/10 600 м
[Cb cap]
+20.5 +13.0 62 +23 +23 комфорт 1008.1 978.7
Ю 1
{11}
10 км слаб. ливневой дождь 10/10 600 м
[Cb cap]
+17.6 +15.2 86 +19 +19 по сезону 1008.3 978.7
Ю 2
{11}
20 км в посл. час ливневой дождь 8/4 600 м
[Cb cap Ac trans]
+18.8 +13.9 73 +20 +21 по сезону 1008.2 978.7 +21.2 2
ЮЗ 3 20 км {ливн. дождь} 4/3 600 м
[Cb cap Ac trans]
+15.9 +13.4 85 +15 +15 по сезону 1008.5 978.7
штиль 0 20 км {ливн. дождь} 3/0
[Ac trans]
+11.7 +11.5 99 +11 +11 прохладно 1009.0 978.7
СВ 1 20 км 4/0
[Ac trans Ci fib]
+10.7 +10.5 99 +10 +10 по сезону 1009.1 978.7
ЮЗ 2 20 км 9/8 600 м
[Cb cap Ac trans]
+13.3 +12.4 94 +12 +13 по сезону 1008.8 978.7 +9.5 0.6
ЮЗ 4 50 км 8/6 600 м
[Cb cap Ac trans]
+16.3 +10.2 67 +16 +17 по сезону 1009.9 980.0
З 5
{12}
20 км {ливн. дождь} 8/8 600 м
[Cb cap Ac trans]
+18.0 +8.5 54 +18 +20 по сезону 1009.7 980.0
З 3
{10}
50 км 9/8 600 м
[Cb cap Ac trans]
+19.5 +7.6 46 +21 +21 комфорт 1009.5 980.0
ЮЗ 3
{10}
20 км 9/8 600 м
[Cb cap Ac trans]
+16.6 +8.0 57 +16 +16 прохладно 1011.2 981.3 +19.9 0.0
ЮЗ 1 20 км 10/9 600 м
[Cb cap Ac trans]
+12.8 +9.1 78 +13 +13 прохладно 1011.6 981.3
В 1 10 км слаб. ливневой дождь 8/8 600 м
[Cb cap]
+11.1 +10.2 94 +11 +11 прохладно 1011.7 981.3
штиль 0 20 км {ливн. дождь} 3/3 1000 м
[Sc]
+7.8 +7.5 98 +7 +7 холодно 1012.1 981.3
штиль 0 20 км {ливн. дождь} 8/3 1000 м
[Sc Ac trans Ci fib]
+7.8 +7.7 99 +7 +7 по сезону 1012.1 981.3 +5.0 0.4
ЮЗ 3 10 км слаб. ливневой дождь 10/10 600 м
[Cb cap]
+13.2 +9.6 79 +12 +12 по сезону 1013.0 982.7
ЮЗ 3 20 км {ливн. дождь} 10/10 1000 м
[Cb cap]
+14.1 +8.1 67 +13 +13 прохладно 1012.9 982.7
З 3 10 км слаб. ливневой дождь 9/9 600 м
[Cb cap]
+12.9 +7.8 71 +12 +12 холодно 1013.0 982.7
штиль 0 20 км {ливн. дождь} 8/8 1000 м
[Cb cap Ac trans]
+12.2 +10.6 90 +12 +12 холодно 1013.1 982.7 +16.5 1
СЗ 1 20 км 10/10 600 м
[Cb cap]
+10.5 +10.3 99 +10 +10 холодно 1014.6 984.0
штиль 0 20 км 10/10 600 м
[Cb cap]
+9.1 +9.0 99 +8 +8 прохладно 1014.8 984.0
штиль 0 20 км {ливн. дождь} 10/10 600 м
[Cb cap]
+8.2 +8.1 99 +7 +7 прохладно 1014.9 984.0
З 1 10 км слаб. ливневой дождь 10/10 600 м
[Cb cap]
+8.8 +7.9 94 +8 +8 по сезону 1014.8 984.0 +8.1 0.1
З 1 20 км {ливн. дождь} 10/10 600 м
[Cb cap]
+11.1 +8.5 84 +11 +11 по сезону 1014.5 984.0
ЮЗ 2 20 км 10/10 600 м
[Cb cap]
+14.0 +7.3 64 +14 +14 по сезону 1012.9 982.7
Ю 2 10 км {ливн. дождь} 10/10 600 м
[Cb cap]
+12.1 +8.8 80 +11 +11 прохладно 1013.1 982.7
ЮЗ 2 20 км в посл. час ливневой дождь 10/8 600 м
[Cb cap Ac trans]
+11.3 +8.0 80 +10 +10 холодно 1014.5 984.0 +14.7 0.9
штиль 0 20 км 9/8 1000 м
[Sc Ac trans]
+9.4 +8.2 92 +9 +9 прохладно 1013.4 982.7
штиль 0 20 км 10/8 1000 м
[Sc Ac trans]
+8.9 +8.4 97 +8 +8 по сезону 1013.4 982.7
штиль 0 10 км слаб. ливневой дождь 10/10 600 м
[Cb cap]
+8.8 +8.5 98 +8 +8 по сезону 1013.5 982.7
СВ 1 20 км {ливн. дождь} 10/10 600 м
[Cb cap]
+9.0 +8.7 98 +8 +8 по сезону 1013.4 982.7 +8.6 2
ЮЗ 2 20 км 9/8 600 м
[Cb cap Ac trans]
+12.2 +8.3 77 +11 +12 по сезону 1013.1 982.7
СЗ 2 20 км 8/8 600 м
[Cb cap Ac trans]
+13.5 +7.3 66 +13 +17 по сезону 1013.0 982.7
Ю 3 20 км 8/6 600 м
[Cb cap Ac trans Ci fib]
+15.9 +6.6 54 +16 +17 тепло 1014.0 984.0
З 2 20 км 6/5 600 м
[Cb cap Ac trans]
+13.9 +6.7 62 +14 +14 по сезону 1014.3 984.0 +17.2
штиль 0 20 км 4/4 600 м
[Cb cap]
+6.5 +6.2 98 +5 +5 холодно 1015.1 984.0
штиль 0 20 км 2 балла +2.3 +2.2 99 1015.6 984.0
штиль 0 10 км ясно +3.4 +3.4 100 1015.4 984.0
З 1 500 м туман ?/? +4.6 +4.5 99 +3 +3 по сезону 1015.3 984.0 +1.7
штиль 0 20 км 9 баллов +8.7 +7.9 95 1014.8 984.0
Ю 5 20 км {туман} 10/10 600 м
[Cb cap]
+11.4 +6.9 74 +9 +9 по сезону 1014.5 984.0
ЮЗ 3
{10}
20 км 10 баллов +12.8 +6.6 66 +12 +12 по сезону 1014.4 984.0
Ю 1 20 км 10 баллов +12.1 +6.6 69 +12 +12 по сезону 1014.5 984.0 +13.8
штиль 0 20 км 10 баллов +8.9 +8.8 99 1016.1 985.3
штиль 0 20 км 6 баллов +6.9 +6.8 99 1016.4 985.3
Местоположение метеостанции Междуреченск (Кемеровская область, Россия): широта 53.63 долгота 88.17 высота над уровнем моря 256 м.
В архиве по умолчанию представлена погода в Междуреченске за последнюю неделю. Архивные данные за месяц целиком и за предыдущие месяцы, начиная с января 2011 года, Вы можете получить, выбрав интересующий диапазон дат из раскрывающегося списка и нажав кнопку "Найти!".
*Определитесь, кто Вы:
Внимание! Время в таблицах - всемирное. Для получения местного времени необходимо прибавить поправку, которая равна 7 ч.
Смотрите также архив погоды в соседних городах и на ближайших метеорологических станциях:
Партнеры нашего сайта:      
Пояснения к столбцам:
  • Ветер - указаны скорость ветра в м/с - средняя за 10 мин, порывы в срок и между сроками (в фигурных скобках) и направление, откуда дует ветер: С - северный,
  • СВ - северо-восточный, В - восточный, ЮВ - юго-восточный, Ю - южный, ЮЗ - юго-западный, З - западный, СЗ - северо-западный.
  • Видимость - горизонтальная дальность видимости в метрах или километрах. При видимости от 1 до 10 км при отсутствии осадков обычно наблюдается дымка, при ухудшении видимости до 1 км и менее - туман. В сухую погоду видимость может ухудшаться дымом, пылью или мглою.
  • Явления - указаны атмосферные явления, наблюдавшиеся в срок или в последний час перед сроком; фигурными скобками обозначены явления, наблюдавшиеся между сроками (за 1-3 часа до срока); квадратными скобками обозначены град или гололедные отложения с указанием их диаметра в мм.
  • Облачность - указаны через наклонную черту общая и нижняя облачность в баллах и высота нижней границы облаков в метрах; квадратными скобками обозначены формы облаков: Ci - перистые, Cs - перисто-слоистые, Cc - перисто-кучевые, Ac - высококучевые, As - высокослоистые, Sc - слоисто-кучевые, Ns - слоисто-дождевые, Cu - кучевые, Cb - кучево-дождевые. Подробнее классификацию облаков см. в Атласе облаков (PDF).
  • T - Температура воздуха - температура, измеренная на высоте 2 м над землей.
  • Td - Температура точки росы - температура, при понижении до которой содержащийся в воздухе водяной пар достигнет насыщения.
  • f - Относительная влажность воздуха - влажноcть воздуха, измеренная на высоте 2 м над землей.
  • Te - Эффективная температура - температура, которую ощущает одетый по сезону человек в тени. Характеристика душности погоды. При расчете учитывается влияние влажности воздуха и скорости ветра на теплоощущения человека.
  • Tes - Эффективная температура на солнце - температура, которую ощущает человек, с поправкой на солнечный нагрев. Характеристика знойности погоды. Зависит от высоты солнца над горизонтом, облачности и скорости ветра. Ночью, в пасмурную погоду, а также при ветре 12 м/с и более поправка равна нулю.
  • P - Атмосферное давление - приведенное к уровню моря атмосферное давление.
  • Po - Атмосферное давление - измеренное на уровне метеостанции атмосферное давление.
  • Tmin - Минимальная температура - минимум температуры воздуха на высоте 2 м над землей.
  • Tmax - Максимальная температура - максимум температуры воздуха на высоте 2 м над землей.
  • R - Количество осадков - Количество выпавших осадков за период времени, мм. При наведении курсора мыши на число - период времени, за который выпало указанное количество осадков.
  • R24 - Количество осадков - Количество выпавших осадков за 24 часа, мм.
  • S - Снежный покров - Высота снежного покрова, см. При наведении курсора мыши на число - состояние снежного покрова и степень покрытия местности в баллах.